When you browse on this site, cookies collect data to enhance your experience and personalize the content and advertising you see.
Visit our Privacy Policy to learn more. By continuing to use the site, you agree to this use of cookies and data.

Hourly Weather Maline

Today, 3 July, Friday

Time Temperature Precipitation Wind Pressure Humidity
00:00 +20°C° 0.1 mm 1 mps 743 mmHg 94%
01:00 +20°C° 0.1 mm 1 mps 744 mmHg 94%
02:00 +20°C° 0.1 mm 1 mps 744 mmHg 94%
03:00 +20°C° 0.3 mm 1 mps 744 mmHg 94%
04:00 +20°C° 0.3 mm 1 mps 744 mmHg 94%
05:00 +20°C° 0.3 mm 1 mps 744 mmHg 95%
06:00 +20°C° 0.2 mm 1 mps 744 mmHg 94%
07:00 +20°C° 0.2 mm 1 mps 744 mmHg 94%
08:00 +19°C° 0.2 mm 2 mps 745 mmHg 93%
09:00 +20°C° 0.2 mm 2 mps 745 mmHg 91%
10:00 +20°C° 0.2 mm 2 mps 745 mmHg 89%
11:00 +21°C° 0.2 mm 2 mps 745 mmHg 86%
12:00 +21°C° 0.3 mm 2 mps 745 mmHg 84%
13:00 +22°C° 0.3 mm 3 mps 744 mmHg 82%
14:00 +24°C° 0.3 mm 3 mps 744 mmHg 80%
15:00 +24°C° 0.2 mm 2 mps 744 mmHg 80%
16:00 +24°C° 0.2 mm 2 mps 744 mmHg 79%
17:00 +25°C° 0.2 mm 2 mps 744 mmHg 79%
18:00 +24°C° 1.1 mm 2 mps 744 mmHg 84%
19:00 +23°C° 1.1 mm 2 mps 744 mmHg 89%
20:00 +21°C° 1.1 mm 2 mps 743 mmHg 95%
21:00 +20°C° 0.5 mm 2 mps 743 mmHg 95%
22:00 +21°C° 0.5 mm 1 mps 743 mmHg 96%
23:00 +20°C° 0.5 mm 1 mps 743 mmHg 96%

Tomorrow, 4 July, Saturday

Time Temperature Precipitation Wind Pressure Humidity
00:00 +20°C° 0.1 mm 1 mps 744 mmHg 96%
01:00 +20°C° 0.1 mm 1 mps 744 mmHg 96%
02:00 +20°C° 0.1 mm 1 mps 744 mmHg 96%
03:00 +20°C° 0 mm 1 mps 744 mmHg 96%
04:00 +20°C° 0 mm 1 mps 744 mmHg 96%
05:00 +20°C° 0 mm 1 mps 744 mmHg 96%
06:00 +21°C° 0 mm 1 mps 744 mmHg 94%
07:00 +21°C° 0 mm 1 mps 744 mmHg 92%
08:00 +22°C° 0 mm 1 mps 745 mmHg 90%
09:00 +23°C° 0.3 mm 2 mps 745 mmHg 84%
10:00 +24°C° 0.3 mm 2 mps 745 mmHg 78%
11:00 +26°C° 0.3 mm 2 mps 745 mmHg 72%
12:00 +26°C° 0.3 mm 2 mps 745 mmHg 70%
13:00 +26°C° 0.3 mm 2 mps 745 mmHg 68%
14:00 +27°C° 0.3 mm 2 mps 745 mmHg 65%
15:00 +26°C° 0.4 mm 2 mps 745 mmHg 69%
16:00 +26°C° 0.4 mm 2 mps 745 mmHg 73%
17:00 +26°C° 0.4 mm 2 mps 745 mmHg 76%
18:00 +24°C° 0.1 mm 2 mps 745 mmHg 80%
19:00 +23°C° 0.1 mm 2 mps 745 mmHg 83%
20:00 +21°C° 0.1 mm 2 mps 745 mmHg 87%
21:00 +20°C° 0 mm 2 mps 745 mmHg 88%
22:00 +19°C° 0 mm 2 mps 745 mmHg 89%
23:00 +18°C° 0 mm 2 mps 746 mmHg 89%

Day after tomorrow, 5 July, Sunday

Time Temperature Precipitation Wind Pressure Humidity
00:00 +17°C° 0 mm 2 mps 746 mmHg 89%
01:00 +16°C° 0 mm 2 mps 746 mmHg 88%
02:00 +15°C° 0 mm 2 mps 746 mmHg 88%
03:00 +15°C° 0 mm 1 mps 746 mmHg 88%
04:00 +15°C° 0 mm 1 mps 746 mmHg 88%
05:00 +15°C° 0 mm 1 mps 746 mmHg 89%
06:00 +18°C° 0 mm 1 mps 746 mmHg 82%
07:00 +20°C° 0 mm 1 mps 746 mmHg 75%
08:00 +20°C° 0 mm 0 mps 746 mmHg 69%
09:00 +23°C° 0 mm 1 mps 746 mmHg 63%
10:00 +25°C° 0 mm 1 mps 746 mmHg 57%
11:00 +26°C° 0 mm 2 mps 746 mmHg 52%
12:00 +26°C° 0 mm 2 mps 746 mmHg 50%
13:00 +27°C° 0 mm 2 mps 745 mmHg 49%
14:00 +27°C° 0 mm 3 mps 745 mmHg 48%
15:00 +27°C° 0.1 mm 3 mps 745 mmHg 53%
16:00 +26°C° 0.1 mm 3 mps 745 mmHg 58%
17:00 +26°C° 0.1 mm 3 mps 745 mmHg 64%
18:00 +24°C° 0.1 mm 2 mps 745 mmHg 71%
19:00 +23°C° 0.1 mm 2 mps 745 mmHg 79%
20:00 +21°C° 0.1 mm 1 mps 744 mmHg 86%
21:00 +20°C° 0 mm 1 mps 745 mmHg 88%
22:00 +20°C° 0 mm 1 mps 745 mmHg 90%
23:00 +18°C° 0 mm 2 mps 745 mmHg 92%

6 July, Monday

Time Temperature Precipitation Wind Pressure Humidity
00:00 +18°C° 0 mm 2 mps 745 mmHg 93%
01:00 +17°C° 0 mm 2 mps 744 mmHg 93%
02:00 +17°C° 0 mm 2 mps 744 mmHg 93%
03:00 +17°C° 0 mm 2 mps 744 mmHg 93%
04:00 +17°C° 0 mm 3 mps 744 mmHg 93%
05:00 +18°C° 0 mm 3 mps 744 mmHg 93%
06:00 +19°C° 0 mm 3 mps 744 mmHg 87%
07:00 +21°C° 0 mm 4 mps 744 mmHg 81%
08:00 +23°C° 0 mm 4 mps 744 mmHg 74%
09:00 +25°C° 0 mm 4 mps 744 mmHg 70%
10:00 +26°C° 0 mm 5 mps 744 mmHg 66%
11:00 +27°C° 0 mm 5 mps 744 mmHg 62%
12:00 +28°C° 0.1 mm 5 mps 744 mmHg 61%
13:00 +28°C° 0.1 mm 5 mps 743 mmHg 61%
14:00 +29°C° 0.1 mm 5 mps 743 mmHg 60%
15:00 +28°C° 0.1 mm 4 mps 743 mmHg 63%
16:00 +28°C° 0.1 mm 4 mps 743 mmHg 65%
17:00 +28°C° 0.1 mm 3 mps 743 mmHg 68%
18:00 +26°C° 0.2 mm 3 mps 742 mmHg 74%
19:00 +25°C° 0.2 mm 2 mps 742 mmHg 80%
20:00 +23°C° 0.2 mm 2 mps 742 mmHg 87%
21:00 +23°C° 0.1 mm 2 mps 742 mmHg 88%
22:00 +22°C° 0.1 mm 1 mps 742 mmHg 89%
23:00 +21°C° 0.1 mm 1 mps 742 mmHg 91%

7 July, Tuesday

Time Temperature Precipitation Wind Pressure Humidity
00:00 +21°C° 0.2 mm 1 mps 742 mmHg 92%
01:00 +20°C° 0.2 mm 1 mps 742 mmHg 92%
02:00 +20°C° 0.2 mm 1 mps 742 mmHg 93%
03:00 +20°C° 0.6 mm 1 mps 742 mmHg 94%
04:00 +20°C° 0.6 mm 1 mps 742 mmHg 95%
05:00 +20°C° 0.6 mm 1 mps 742 mmHg 96%
06:00 +21°C° 0.9 mm 1 mps 742 mmHg 95%
07:00 +21°C° 0.9 mm 1 mps 742 mmHg 93%
08:00 +22°C° 0.9 mm 1 mps 743 mmHg 92%
09:00 +22°C° 0.8 mm 1 mps 743 mmHg 92%
10:00 +21°C° 0.8 mm 2 mps 743 mmHg 92%
11:00 +21°C° 0.8 mm 3 mps 743 mmHg 92%
12:00 +21°C° 0.3 mm 3 mps 743 mmHg 91%
13:00 +21°C° 0.3 mm 4 mps 743 mmHg 90%
14:00 +21°C° 0.3 mm 4 mps 742 mmHg 89%
15:00 +20°C° 0 mm 4 mps 743 mmHg 86%
16:00 +20°C° 0 mm 4 mps 743 mmHg 83%
17:00 +19°C° 0 mm 4 mps 743 mmHg 80%
18:00 +19°C° 0 mm 4 mps 743 mmHg 77%
19:00 +18°C° 0 mm 4 mps 743 mmHg 75%
20:00 +17°C° 0 mm 4 mps 743 mmHg 73%
21:00 +17°C° 0.1 mm 4 mps 743 mmHg 75%
22:00 +16°C° 0.1 mm 3 mps 743 mmHg 76%
23:00 +16°C° 0.1 mm 3 mps 743 mmHg 78%

8 July, Wednesday

Time Temperature Precipitation Wind Pressure Humidity
00:00 +14°C° 0.1 mm 3 mps 743 mmHg 80%
01:00 +14°C° 0.1 mm 3 mps 743 mmHg 83%
02:00 +13°C° 0.1 mm 3 mps 743 mmHg 85%
03:00 +13°C° 0 mm 3 mps 743 mmHg 85%
04:00 +13°C° 0 mm 3 mps 743 mmHg 85%
05:00 +13°C° 0 mm 4 mps 743 mmHg 84%
06:00 +13°C° 0.2 mm 4 mps 743 mmHg 86%
07:00 +12°C° 0.2 mm 4 mps 743 mmHg 89%
08:00 +12°C° 0.2 mm 4 mps 743 mmHg 91%
09:00 +13°C° 0.1 mm 4 mps 743 mmHg 86%
10:00 +14°C° 0.1 mm 3 mps 744 mmHg 81%
11:00 +16°C° 0.1 mm 3 mps 744 mmHg 77%
12:00 +17°C° 0 mm 3 mps 744 mmHg 70%
13:00 +18°C° 0 mm 3 mps 744 mmHg 63%
14:00 +19°C° 0 mm 3 mps 744 mmHg 56%
15:00 +19°C° 0.1 mm 3 mps 743 mmHg 59%
16:00 +19°C° 0.1 mm 4 mps 743 mmHg 61%
17:00 +19°C° 0.1 mm 4 mps 743 mmHg 64%
18:00 +17°C° 0.2 mm 4 mps 743 mmHg 71%
19:00 +16°C° 0.2 mm 3 mps 743 mmHg 78%
20:00 +13°C° 0.2 mm 3 mps 743 mmHg 85%
21:00 +12°C° 0 mm 3 mps 743 mmHg 87%
22:00 +11°C° 0 mm 3 mps 743 mmHg 90%
23:00 +10°C° 0 mm 3 mps 743 mmHg 93%
Show more